Latest Weather Observations for Adelaide Airport

IDS60801

Issued at 5:35 pm CST Wednesday 1 October 2014 (issued every 30 minutes, with the page automatically refreshed every 10 minutes)

About weather observations | Map of weather stations | Latest weather observations for SA | Other Formats
Station Details ID: 023034 Name: ADELAIDE AIRPORT Lat: -34.95 Lon: 138.52 Height: 2.0 m
Data from the previous 72 hours. | See also: Recent months at Adelaide Airport
Date/Time
CST
Temp
°C
App
Temp
°C
Dew
Point
Rel
Hum
%
Delta-T
°C
Wind Press
QNH
hPa
Press
MSL
hPa
Rain
since 9 am
mm
Dir
 
Spd
km/h
Gust
km/h
Spd
kts
Gust
kts
01/05:30pm 15.2 9.7 6.0 54 4.4 SSW 24 33 13 18 1027.0 - 0.0
01/05:00pm 15.5 9.3 6.1 53 4.5 SSW 28 41 15 22 1027.0 - 0.0
01/04:30pm 15.7 9.0 5.6 51 4.8 SSW 30 37 16 20 1026.8 - 0.0
01/04:00pm 15.8 9.1 5.5 50 4.9 SW 30 39 16 21 1026.8 - 0.0
01/03:30pm 15.6 8.4 5.2 50 4.9 SW 32 37 17 20 1026.9 - 0.0
01/03:00pm 17.0 9.9 5.5 46 5.5 SW 32 41 17 22 1026.9 1026.9 0.0
01/02:30pm 17.0 10.8 6.1 48 5.3 SW 28 37 15 20 1027.1 - 0.0
01/02:00pm 16.5 10.0 6.4 51 4.9 SW 30 37 16 20 1027.4 - 0.0
01/01:30pm 15.9 9.4 6.6 54 4.5 SW 30 35 16 19 1027.6 - 0.0
01/01:00pm 16.3 9.6 5.6 49 5.1 SW 30 35 16 19 1028.0 - 0.0
01/12:30pm 15.8 9.3 4.6 47 5.3 SW 28 33 15 18 1028.1 - 0.0
01/12:00pm 15.4 8.9 4.6 48 5.0 WSW 28 35 15 19 1028.4 1028.4 0.0
01/11:30am 16.0 9.9 4.6 46 5.4 SW 26 33 14 18 1028.5 - 0.0
01/11:00am 15.5 10.0 3.9 46 5.3 SW 22 30 12 16 1028.5 - 0.0
01/10:30am 16.1 10.4 5.1 48 5.2 WSW 24 30 13 16 1028.6 - 0.0
01/10:00am 14.9 9.4 4.2 48 4.9 SW 22 30 12 16 1028.5 - 0.0
01/09:30am 14.7 9.5 3.6 47 5.0 SW 20 30 11 16 1028.4 - 0.0
01/09:00am 14.5 9.4 3.9 49 4.8 SW 20 26 11 14 1028.2 1028.2 0.4
01/08:30am 14.0 9.5 4.1 51 4.5 SSW 17 24 9 13 1028.0 - 0.4
01/08:00am 13.8 10.6 5.2 56 4.0 S 11 13 6 7 1027.7 - 0.4
01/07:30am 12.4 9.9 6.7 68 2.7 SSE 9 13 5 7 1027.3 - 0.4
01/07:00am 10.8 8.7 6.5 75 2.0 SE 7 9 4 5 1027.0 - 0.4
01/06:30am 10.3 7.8 6.7 78 1.7 SE 9 9 5 5 1026.6 - 0.4
01/06:00am 9.6 8.9 6.8 83 1.3 S 0 0 0 0 1026.1 1026.1 0.4
01/05:30am 10.4 8.2 6.3 76 1.9 SSE 7 9 4 5 1025.5 - 0.4
01/05:00am 10.9 8.1 7.1 77 1.8 SSE 11 13 6 7 1025.0 - 0.4
01/04:30am 11.4 9.0 7.2 75 2.0 S 9 11 5 6 1024.7 - 0.4
01/04:00am 11.6 8.9 7.2 74 2.1 SSW 11 17 6 9 1024.3 - 0.4
01/03:54am 11.5 8.9 7.8 78 1.8 S 11 17 6 9 1024.3 - 0.2
01/03:30am 12.1 9.3 7.1 71 2.4 SE 11 15 6 8 1024.1 - 0.2
01/03:00am 12.3 9.7 7.8 74 2.2 S 11 17 6 9 1023.7 1023.7 0.2
01/02:30am 12.3 8.6 7.8 74 2.2 SSW 17 24 9 13 1023.7 - 0.2
01/02:00am 12.5 8.9 6.6 67 2.8 S 15 20 8 11 1023.6 - 0.2
01/01:30am 11.8 9.1 7.2 73 2.2 SSE 11 13 6 7 1023.5 - 0.0
01/01:00am 11.7 8.8 6.6 71 2.4 S 11 15 6 8 1023.5 - 0.0
01/12:30am 12.5 8.6 7.1 69 2.6 S 17 26 9 14 1023.4 - 0.0
01/12:00am 12.8 9.3 7.2 69 2.7 SSW 15 22 8 12 1023.1 1023.1 0.0
 
Date/Time
CST
Temp
°C
App
Temp
°C
Dew
Point
Rel
Hum
%
Delta-T
°C
Wind Press
QNH
hPa
Press
MSL
hPa
Rain
since 9 am
mm
Dir
 
Spd
km/h
Gust
km/h
Spd
kts
Gust
kts
30/11:30pm 12.4 9.3 7.2 70 2.5 S 13 19 7 10 1022.8 - 0.0
30/11:00pm 13.5 8.0 7.6 67 2.9 SW 26 32 14 17 1022.7 - 0.0
30/10:30pm 13.5 8.1 6.4 62 3.4 SSW 24 32 13 17 1022.4 - 0.0
30/10:00pm 13.5 7.5 5.1 57 3.9 SW 26 37 14 20 1022.2 - 0.0
30/09:30pm 13.7 6.7 5.9 59 3.7 SW 32 41 17 22 1022.1 - 0.0
30/09:00pm 14.0 7.2 5.2 55 4.1 SW 30 46 16 25 1021.7 1021.7 0.0
30/08:30pm 14.4 6.4 5.7 56 4.1 SW 37 44 20 24 1021.3 - 0.0
30/08:00pm 14.6 6.7 8.0 64 3.3 WSW 39 50 21 27 1020.8 - 0.0
30/07:30pm 14.8 6.9 7.7 62 3.5 WSW 39 48 21 26 1020.3 - 0.0
30/07:00pm 14.8 6.8 7.3 61 3.7 WSW 39 52 21 28 1019.7 - 0.0
30/06:30pm 14.9 7.4 7.9 63 3.5 WSW 37 48 20 26 1019.2 - 0.0
30/06:00pm 15.4 7.9 8.0 61 3.7 WSW 37 50 20 27 1018.8 1018.8 0.0
30/05:30pm 15.3 8.2 7.9 61 3.7 WSW 35 43 19 23 1018.4 - 0.0
30/05:00pm 16.2 7.4 7.1 55 4.5 WSW 43 54 23 29 1018.0 - 0.0
30/04:30pm 16.6 8.1 7.1 53 4.7 WSW 41 50 22 27 1017.5 - 0.0
30/04:00pm 17.1 9.3 8.3 56 4.5 WSW 39 50 21 27 1017.2 - 0.0
30/03:30pm 17.1 8.9 8.3 56 4.5 WSW 41 50 22 27 1017.0 - 0.0
30/03:00pm 17.0 10.1 10.2 64 3.6 WSW 37 44 20 24 1016.7 1016.7 0.0
30/02:30pm 15.6 10.1 11.7 77 2.1 WSW 32 46 17 25 1016.7 - 0.0
30/02:00pm 13.9 5.0 12.0 88 1.0 WSW 50 61 27 33 1016.7 - 0.0
30/01:49pm 14.2 6.3 11.4 83 1.5 WSW 44 61 24 33 1016.6 - 0.0
30/01:46pm 14.7 7.3 11.1 79 1.9 WSW 41 61 22 33 1016.5 - 0.0
30/01:30pm 16.4 10.5 11.0 70 2.9 WSW 33 43 18 23 1016.1 - 0.0
30/01:23pm 16.2 9.9 11.0 71 2.8 WSW 35 54 19 29 1015.9 - 0.0
30/01:15pm 16.4 8.6 11.2 71 2.8 WSW 43 54 23 29 1015.9 - 0.0
30/01:13pm 17.4 12.2 11.5 68 3.2 W 30 48 16 26 1015.9 - 0.0
30/01:00pm 19.1 14.6 11.4 61 4.2 W 26 35 14 19 1015.6 - 0.0
30/12:30pm 19.1 12.9 11.4 61 4.2 W 35 44 19 24 1015.5 - 0.0
30/12:00pm 18.2 12.6 11.6 65 3.6 WNW 32 39 17 21 1015.2 1015.2 0.0
30/11:30am 18.5 13.0 11.8 65 3.7 WNW 32 41 17 22 1015.1 - 0.0
30/11:00am 17.8 12.2 11.6 67 3.4 WNW 32 43 17 23 1015.0 - 0.0
30/10:30am 18.9 13.0 11.0 60 4.3 WNW 33 43 18 23 1015.0 - 0.0
30/10:00am 18.9 13.5 10.8 59 4.4 WNW 30 39 16 21 1014.8 - 0.0
30/09:30am 18.7 13.7 10.9 60 4.2 WNW 28 35 15 19 1014.7 - 0.0
30/09:00am 18.4 12.9 10.4 59 4.3 NW 30 37 16 20 1014.3 1014.3 0.0
30/08:30am 17.9 11.8 9.7 58 4.3 NW 32 39 17 21 1014.2 - 0.0
30/08:00am 17.8 14.0 9.8 59 4.2 NW 20 26 11 14 1013.7 - 0.0
30/07:30am 15.9 12.8 10.2 69 3.0 N 17 22 9 12 1013.3 - 0.0
30/07:00am 13.2 9.6 9.9 80 1.7 NNE 19 26 10 14 1012.7 - 0.0
30/06:30am 11.1 7.9 8.5 84 1.3 NNE 15 17 8 9 1012.9 - 0.0
30/06:00am 10.0 6.6 7.7 86 1.1 N 15 20 8 11 1012.5 1012.5 0.0
30/05:30am 10.9 7.6 8.2 83 1.3 NNE 15 19 8 10 1012.0 - 0.0
30/05:00am 11.2 7.7 8.6 84 1.3 NNE 17 19 9 10 1011.8 - 0.0
30/04:30am 11.3 8.6 8.9 85 1.2 NE 13 19 7 10 1011.6 - 0.0
30/04:00am 10.9 7.9 9.3 90 0.8 NNE 15 17 8 9 1011.5 - 0.0
30/03:30am 11.1 8.2 9.5 90 0.8 NNE 15 19 8 10 1011.4 - 0.0
30/03:00am 11.4 8.2 9.8 90 0.8 NNE 17 22 9 12 1011.8 1011.8 0.0
30/02:30am 11.3 8.4 9.7 90 0.8 NE 15 17 8 9 1011.9 - 0.0
30/02:00am 10.4 7.3 9.0 91 0.7 NE 15 19 8 10 1012.2 - 0.0
30/01:30am 11.9 9.5 9.9 87 1.0 NE 13 15 7 8 1012.9 - 0.0
30/01:00am 11.7 10.1 10.1 90 0.8 ENE 9 11 5 6 1013.1 - 0.0
30/12:30am 11.4 9.3 9.8 90 0.8 NE 11 13 6 7 1013.6 - 0.0
30/12:00am 12.0 10.0 10.0 87 1.0 NE 11 11 6 6 1014.1 1014.1 0.0
 
Date/Time
CST
Temp
°C
App
Temp
°C
Dew
Point
Rel
Hum
%
Delta-T
°C
Wind Press
QNH
hPa
Press
MSL
hPa
Rain
since 9 am
mm
Dir
 
Spd
km/h
Gust
km/h
Spd
kts
Gust
kts
29/11:30pm 11.8 10.5 9.8 87 1.0 NE 7 7 4 4 1014.4 - 0.0
29/11:00pm 11.7 10.0 9.7 87 1.0 NE 9 9 5 5 1014.7 - 0.0
29/10:30pm 12.2 12.4 10.5 89 0.9 CALM 0 0 0 0 1014.9 - 0.0
29/10:00pm 14.1 13.8 11.3 83 1.5 WSW 4 7 2 4 1015.1 - 0.0
29/09:30pm 14.3 13.0 11.1 81 1.7 SSW 9 9 5 5 1015.1 - 0.0
29/09:00pm 14.7 13.1 11.5 81 1.7 SW 11 15 6 8 1015.0 1015.0 0.0
29/08:30pm 15.0 12.9 11.0 77 2.1 SW 13 17 7 9 1014.8 - 0.0
29/08:00pm 15.6 12.9 11.7 77 2.1 W 17 22 9 12 1014.6 - 0.0
29/07:30pm 16.7 13.9 10.1 65 3.5 W 15 22 8 12 1014.1 - 0.0
29/07:00pm 16.8 14.5 9.1 60 4.0 W 11 15 6 8 1013.7 - 0.0
29/06:30pm 17.3 15.7 8.8 57 4.4 W 7 7 4 4 1013.3 - 0.0
29/06:00pm 18.4 16.9 8.5 52 5.1 W 6 9 3 5 1013.1 1013.1 0.0
29/05:30pm 19.1 16.9 7.8 48 5.8 W 9 13 5 7 1013.2 - 0.0
29/05:00pm 19.3 16.9 8.5 49 5.6 W 11 15 6 8 1013.1 - 0.0
29/04:30pm 19.2 16.5 9.1 52 5.3 W 13 17 7 9 1013.2 - 0.0
29/04:00pm 19.2 16.2 9.1 52 5.3 W 15 19 8 10 1013.2 - 0.0
29/03:30pm 19.5 16.2 9.5 52 5.3 WNW 17 24 9 13 1013.3 - 0.0
29/03:00pm 19.6 15.6 8.9 50 5.6 WNW 20 32 11 17 1013.4 1013.4 0.0
29/02:30pm 19.6 15.1 8.7 49 5.7 NW 22 32 12 17 1013.5 - 0.0
29/02:00pm 19.8 14.8 8.2 47 6.0 NNW 24 32 13 17 1013.7 - 0.0
29/01:30pm 19.7 14.3 8.1 47 6.0 NNW 26 32 14 17 1014.1 - 0.0
29/01:00pm 20.1 14.9 8.9 48 5.9 NNW 26 33 14 18 1014.4 - 0.0
29/12:30pm 19.4 14.2 8.7 50 5.6 NNW 26 33 14 18 1014.8 - 0.0
29/12:00pm 18.7 14.0 9.4 54 4.9 NW 24 32 13 17 1015.1 1015.1 0.0
29/11:30am 18.1 14.5 10.4 60 4.1 NNW 20 26 11 14 1015.5 - 0.0
29/11:00am 18.3 14.7 10.5 60 4.2 NNW 20 26 11 14 1015.8 - 0.0
29/10:30am 17.3 12.4 11.2 67 3.3 NNW 28 35 15 19 1016.1 - 0.0
29/10:00am 17.6 13.2 11.7 68 3.2 NNW 26 32 14 17 1016.3 - 0.0
29/09:30am 16.8 13.2 11.8 72 2.7 NNW 22 30 12 16 1016.5 - 0.0
29/09:00am 16.3 13.2 12.3 77 2.2 NNW 20 26 11 14 1016.3 1016.3 0.0
29/08:30am 15.8 13.9 11.9 77 2.1 N 13 19 7 10 1016.0 - 0.0
29/08:00am 14.2 11.4 11.2 82 1.6 N 17 22 9 12 1015.8 - 0.0
29/07:30am 13.2 10.2 10.7 85 1.3 N 17 22 9 12 1015.5 - 0.0
29/07:00am 12.5 9.9 10.6 88 1.0 N 15 19 8 10 1015.4 - 0.0
29/06:30am 11.1 8.7 9.9 92 0.6 NNE 13 15 7 8 1015.1 - 0.0
29/06:00am 13.7 11.7 11.6 87 1.1 NNE 13 17 7 9 1015.0 1015.0 0.0
29/05:30am 14.2 12.7 11.8 85 1.3 WNW 11 15 6 8 1014.7 - 0.0
29/05:00am 14.5 12.2 11.7 83 1.5 W 15 19 8 10 1014.4 - 0.0
29/04:30am 14.7 11.9 11.3 80 1.8 W 17 22 9 12 1014.0 - 0.0
29/04:00am 14.9 11.5 11.1 78 2.0 WSW 20 28 11 15 1013.8 - 0.0
29/03:30am 14.9 10.8 11.3 79 1.9 WSW 24 32 13 17 1013.6 - 0.0
29/03:00am 14.8 10.6 11.2 79 1.9 W 24 32 13 17 1013.8 1013.8 0.0
29/02:30am 14.6 11.6 12.0 84 1.4 W 19 24 10 13 1013.9 - 0.0
29/02:00am 14.8 11.6 11.8 82 1.6 W 20 28 11 15 1013.8 - 0.0
29/01:30am 14.9 11.2 11.5 80 1.8 W 22 30 12 16 1014.0 - 0.0
29/01:00am 14.8 11.1 11.4 80 1.8 W 22 30 12 16 1014.2 - 0.0
29/12:30am 15.2 10.9 10.9 75 2.3 W 24 32 13 17 1014.7 - 0.0
29/12:00am 15.3 11.0 10.8 74 2.4 W 24 30 13 16 1014.8 1014.8 0.0
 
Date/Time
CST
Temp
°C
App
Temp
°C
Dew
Point
Rel
Hum
%
Delta-T
°C
Wind Press
QNH
hPa
Press
MSL
hPa
Rain
since 9 am
mm
Dir
 
Spd
km/h
Gust
km/h
Spd
kts
Gust
kts
28/11:30pm 15.2 11.6 10.7 74 2.4 W 20 28 11 15 1014.9 - 0.0
28/11:00pm 15.2 12.2 10.7 74 2.4 W 17 20 9 11 1015.2 - 0.0
28/10:30pm 15.2 13.0 10.7 74 2.4 W 13 20 7 11 1015.1 - 0.0
28/10:00pm 15.2 12.1 10.4 73 2.5 W 17 22 9 12 1015.0 - 0.0
28/09:30pm 15.2 12.5 10.4 73 2.5 W 15 19 8 10 1014.9 - 0.0
28/09:00pm 15.4 12.2 10.0 70 2.8 W 17 24 9 13 1014.9 1014.9 0.0
28/08:30pm 14.8 13.2 11.6 81 1.7 WSW 11 17 6 9 1014.6 - 0.0
28/08:00pm 15.2 12.1 12.3 83 1.6 WSW 20 28 11 15 1014.2 - 0.0
28/07:30pm 15.5 11.5 11.8 78 2.0 SW 24 32 13 17 1013.3 - 0.0
28/07:00pm 15.6 12.4 11.9 78 2.0 SW 20 28 11 15 1012.5 - 0.0
28/06:30pm 15.8 12.7 11.7 76 2.2 SSW 19 28 10 15 1011.6 - 0.0
28/06:00pm 16.3 12.2 11.5 73 2.6 SSW 24 32 13 17 1011.1 1011.1 0.0

Other Formats:

Comma delimited format used in spreadsheet applications
http://www.bom.gov.au/fwo/IDS60801/IDS60801.94672.axf

JavaScript Object Notation format (JSON) in row-major order
http://www.bom.gov.au/fwo/IDS60801/IDS60801.94672.json